• In Uzbekistan
  • List of Countries
  • For 7 days
  • Water Temperature
  • Satellite Maps
  • Weather Map
  • Weather Widgets
  • user-avatar
    Login

    Hourly Weather Barkocin

    Today, 26 September, Wednesday

    Time Temperature Precipitation Wind Pressure Humidity
    00:00 +6°C° 0 mm 4 mps 761 mmHg 74%
    01:00 +5°C° 0 mm 4 mps 760 mmHg 77%
    02:00 +5°C° 0 mm 4 mps 760 mmHg 76%
    03:00 +5°C° 0 mm 5 mps 760 mmHg 76%
    04:00 +5°C° 0 mm 5 mps 759 mmHg 75%
    05:00 +6°C° 0 mm 5 mps 759 mmHg 72%
    06:00 +5°C° 0 mm 6 mps 759 mmHg 70%
    07:00 +7°C° 0 mm 6 mps 758 mmHg 67%
    08:00 +6°C° 0.2 mm 7 mps 758 mmHg 69%
    09:00 +6°C° 0.2 mm 7 mps 758 mmHg 70%
    10:00 +7°C° 0.2 mm 8 mps 757 mmHg 71%
    11:00 +7°C° 0.2 mm 8 mps 757 mmHg 69%
    12:00 +9°C° 0.2 mm 8 mps 756 mmHg 68%
    13:00 +9°C° 0.2 mm 8 mps 755 mmHg 66%
    14:00 +9°C° 0.2 mm 8 mps 755 mmHg 63%
    15:00 +10°C° 0.2 mm 8 mps 754 mmHg 60%
    16:00 +10°C° 0.2 mm 8 mps 753 mmHg 57%
    17:00 +10°C° 0.1 mm 8 mps 753 mmHg 60%
    18:00 +11°C° 0.1 mm 8 mps 752 mmHg 62%
    19:00 +11°C° 0.1 mm 8 mps 752 mmHg 64%
    20:00 +11°C° 0.1 mm 8 mps 752 mmHg 68%
    21:00 +12°C° 0.1 mm 8 mps 752 mmHg 71%
    22:00 +12°C° 0.1 mm 8 mps 751 mmHg 74%
    23:00 +13°C° 0.2 mm 8 mps 751 mmHg 78%

    Tomorrow, 27 September, Thursday

    Time Temperature Precipitation Wind Pressure Humidity
    00:00 +13°C° 0.2 mm 8 mps 751 mmHg 82%
    01:00 +13°C° 0.2 mm 8 mps 751 mmHg 86%
    02:00 +13°C° 0.2 mm 8 mps 751 mmHg 87%
    03:00 +15°C° 0.2 mm 8 mps 751 mmHg 88%
    04:00 +15°C° 0.2 mm 8 mps 751 mmHg 89%
    05:00 +15°C° 0.1 mm 7 mps 751 mmHg 88%
    06:00 +15°C° 0.1 mm 7 mps 752 mmHg 88%
    07:00 +15°C° 0.1 mm 7 mps 752 mmHg 87%
    08:00 +15°C° 0.1 mm 6 mps 752 mmHg 86%
    09:00 +15°C° 0.1 mm 6 mps 753 mmHg 84%
    10:00 +15°C° 0.1 mm 6 mps 753 mmHg 83%
    11:00 +15°C° 0.1 mm 6 mps 753 mmHg 82%
    12:00 +16°C° 0.1 mm 6 mps 752 mmHg 81%
    13:00 +16°C° 0.1 mm 6 mps 752 mmHg 80%
    14:00 +16°C° 0 mm 6 mps 752 mmHg 80%
    15:00 +16°C° 0 mm 6 mps 751 mmHg 79%
    16:00 +16°C° 0 mm 6 mps 751 mmHg 79%
    17:00 +16°C° 0.1 mm 6 mps 750 mmHg 81%
    18:00 +16°C° 0.1 mm 6 mps 750 mmHg 82%
    19:00 +16°C° 0.1 mm 6 mps 749 mmHg 83%
    20:00 +16°C° 0.1 mm 6 mps 749 mmHg 83%
    21:00 +16°C° 0.1 mm 6 mps 748 mmHg 83%
    22:00 +16°C° 0.1 mm 6 mps 747 mmHg 83%
    23:00 +16°C° 0.3 mm 7 mps 747 mmHg 83%

    Day after tomorrow, 28 September, Friday

    Time Temperature Precipitation Wind Pressure Humidity
    00:00 +15°C° 0.3 mm 7 mps 746 mmHg 82%
    01:00 +15°C° 0.3 mm 7 mps 746 mmHg 82%
    02:00 +14°C° 0.5 mm 7 mps 746 mmHg 82%
    03:00 +14°C° 0.5 mm 7 mps 746 mmHg 83%
    04:00 +12°C° 0.5 mm 7 mps 746 mmHg 83%
    05:00 +11°C° 0.1 mm 6 mps 746 mmHg 80%
    06:00 +11°C° 0.1 mm 6 mps 746 mmHg 77%
    07:00 +10°C° 0.1 mm 5 mps 747 mmHg 75%
    08:00 +10°C° 0 mm 5 mps 747 mmHg 71%
    09:00 +12°C° 0 mm 5 mps 748 mmHg 67%
    10:00 +13°C° 0 mm 6 mps 748 mmHg 63%
    11:00 +13°C° 0 mm 5 mps 749 mmHg 61%
    12:00 +13°C° 0 mm 5 mps 749 mmHg 60%
    13:00 +13°C° 0 mm 5 mps 749 mmHg 58%
    14:00 +13°C° 0 mm 5 mps 749 mmHg 59%
    15:00 +12°C° 0 mm 5 mps 750 mmHg 60%
    16:00 +12°C° 0 mm 4 mps 750 mmHg 61%
    17:00 +11°C° 0 mm 4 mps 750 mmHg 64%
    18:00 +10°C° 0 mm 3 mps 750 mmHg 67%
    19:00 +9°C° 0 mm 2 mps 750 mmHg 70%
    20:00 +8°C° 0 mm 2 mps 751 mmHg 69%
    21:00 +8°C° 0 mm 2 mps 751 mmHg 69%
    22:00 +8°C° 0 mm 2 mps 752 mmHg 68%
    23:00 +8°C° 0.1 mm 2 mps 752 mmHg 69%

    29 September, Saturday

    Time Temperature Precipitation Wind Pressure Humidity
    00:00 +7°C° 0.1 mm 2 mps 752 mmHg 70%
    01:00 +7°C° 0.1 mm 2 mps 752 mmHg 70%
    02:00 +7°C° 0.1 mm 2 mps 753 mmHg 71%
    03:00 +7°C° 0.1 mm 2 mps 753 mmHg 72%
    04:00 +7°C° 0.1 mm 2 mps 753 mmHg 73%
    05:00 +8°C° 0 mm 1 mps 754 mmHg 71%
    06:00 +8°C° 0 mm 1 mps 754 mmHg 69%
    07:00 +9°C° 0 mm 1 mps 754 mmHg 68%
    08:00 +10°C° 0 mm 1 mps 755 mmHg 59%
    09:00 +12°C° 0 mm 2 mps 756 mmHg 51%
    10:00 +13°C° 0 mm 2 mps 756 mmHg 42%
    11:00 +14°C° 0 mm 2 mps 756 mmHg 40%
    12:00 +14°C° 0 mm 2 mps 756 mmHg 37%
    13:00 +14°C° 0 mm 2 mps 757 mmHg 34%
    14:00 +14°C° 0 mm 2 mps 756 mmHg 35%
    15:00 +14°C° 0 mm 2 mps 756 mmHg 37%
    16:00 +13°C° 0 mm 2 mps 756 mmHg 38%
    17:00 +12°C° 0 mm 2 mps 756 mmHg 42%
    18:00 +9°C° 0 mm 2 mps 756 mmHg 47%
    19:00 +9°C° 0 mm 1 mps 756 mmHg 51%
    20:00 +8°C° 0 mm 2 mps 756 mmHg 52%
    21:00 +7°C° 0 mm 2 mps 757 mmHg 52%
    22:00 +7°C° 0 mm 2 mps 757 mmHg 53%
    23:00 +7°C° 0 mm 2 mps 756 mmHg 53%

    30 September, Sunday

    Time Temperature Precipitation Wind Pressure Humidity
    00:00 +6°C° 0 mm 2 mps 756 mmHg 54%
    01:00 +6°C° 0 mm 2 mps 756 mmHg 54%
    02:00 +5°C° 0 mm 3 mps 756 mmHg 55%
    03:00 +5°C° 0 mm 3 mps 755 mmHg 57%
    04:00 +5°C° 0 mm 3 mps 755 mmHg 58%
    05:00 +5°C° 0 mm 3 mps 755 mmHg 59%
    06:00 +5°C° 0 mm 3 mps 755 mmHg 60%
    07:00 +5°C° 0 mm 3 mps 755 mmHg 62%
    08:00 +7°C° 0 mm 4 mps 755 mmHg 57%
    09:00 +10°C° 0 mm 4 mps 755 mmHg 53%
    10:00 +12°C° 0 mm 4 mps 755 mmHg 49%
    11:00 +13°C° 0 mm 4 mps 754 mmHg 47%
    12:00 +14°C° 0 mm 4 mps 753 mmHg 45%
    13:00 +14°C° 0 mm 4 mps 753 mmHg 43%
    14:00 +14°C° 0 mm 4 mps 752 mmHg 45%
    15:00 +14°C° 0 mm 4 mps 752 mmHg 46%
    16:00 +14°C° 0 mm 3 mps 751 mmHg 48%
    17:00 +12°C° 0 mm 3 mps 751 mmHg 53%
    18:00 +11°C° 0 mm 3 mps 751 mmHg 58%
    19:00 +9°C° 0 mm 2 mps 751 mmHg 63%
    20:00 +9°C° 0 mm 2 mps 750 mmHg 63%
    21:00 +8°C° 0 mm 3 mps 750 mmHg 64%
    22:00 +8°C° 0 mm 3 mps 750 mmHg 64%
    23:00 +7°C° 0 mm 3 mps 749 mmHg 64%

    1 October, Monday

    Time Temperature Precipitation Wind Pressure Humidity
    00:00 +7°C° 0 mm 3 mps 749 mmHg 63%
    01:00 +7°C° 0 mm 3 mps 748 mmHg 63%
    02:00 +5°C° 0 mm 3 mps 748 mmHg 62%
    03:00 +6°C° 0 mm 2 mps 747 mmHg 62%
    04:00 +5°C° 0 mm 2 mps 746 mmHg 62%
    05:00 +6°C° 0 mm 2 mps 746 mmHg 63%
    06:00 +6°C° 0 mm 2 mps 746 mmHg 63%
    07:00 +6°C° 0 mm 2 mps 745 mmHg 64%
    08:00 +8°C° 0 mm 2 mps 745 mmHg 59%
    09:00 +10°C° 0 mm 2 mps 745 mmHg 54%
    10:00 +12°C° 0 mm 2 mps 745 mmHg 49%
    11:00 +14°C° 0 mm 2 mps 744 mmHg 46%
    12:00 +15°C° 0 mm 2 mps 744 mmHg 43%
    13:00 +16°C° 0 mm 1 mps 744 mmHg 39%
    14:00 +16°C° 0 mm 1 mps 743 mmHg 42%
    15:00 +15°C° 0 mm 1 mps 743 mmHg 45%
    16:00 +15°C° 0 mm 1 mps 743 mmHg 47%
    17:00 +14°C° 0 mm 1 mps 743 mmHg 51%
    18:00 +12°C° 0 mm 1 mps 743 mmHg 55%
    19:00 +11°C° 0 mm 1 mps 743 mmHg 60%
    20:00 +10°C° 0 mm 1 mps 743 mmHg 62%
    21:00 +9°C° 0 mm 2 mps 743 mmHg 64%
    22:00 +8°C° 0 mm 2 mps 744 mmHg 67%
    23:00 +8°C° 0 mm 2 mps 744 mmHg 69%
    Show more